SB KEPS @ AMSAT $ORB11048.O Orbital Elements 11048.OSCAR
HR AMSAT ORBITAL ELEMENTS FOR OSCAR SATELLITES FROM WA5QGD FORT WORTH,TX February 17, 2011 Send Subscribe/unsubscribe to KEPS at http://www.amsat.org/mailman/listinfo/keps BID: ORB11048.O TO ALL RADIO AMATEURS BT
Satellite: AO-07 Catalog number: 07530 Epoch time: 11047.56918477 Element set: 0008 Inclination: 101.3959 deg RA of node: 058.8660 deg Eccentricity: 0.0011845 Arg of perigee: 155.0573 deg Mean anomaly: 205.1071 deg Mean motion: 12.53581114 rev/day Decay rate: -2.7e-07 rev/day^2 Epoch rev: 65907 Checksum: 291
Satellite: FO-29 Catalog number: 24278 Epoch time: 11047.95817347 Element set: 0524 Inclination: 098.5259 deg RA of node: 208.3969 deg Eccentricity: 0.0350168 Arg of perigee: 208.8162 deg Mean anomaly: 149.3234 deg Mean motion: 13.52957748 rev/day Decay rate: 1.38e-06 rev/day^2 Epoch rev: 71620 Checksum: 342
Satellite: SO-33 Catalog number: 25509 Epoch time: 11048.79142469 Element set: 906 Inclination: 031.4335 deg RA of node: 199.5819 deg Eccentricity: 0.0354226 Arg of perigee: 277.3867 deg Mean anomaly: 078.6655 deg Mean motion: 14.28366173 rev/day Decay rate: 2.80e-06 rev/day^2 Epoch rev: 64319 Checksum: 342
Satellite: RS-22 Catalog number: 27939 Epoch time: 11048.64758831 Element set: 999 Inclination: 097.8615 deg RA of node: 268.2547 deg Eccentricity: 0.0013882 Arg of perigee: 007.8837 deg Mean anomaly: 352.2577 deg Mean motion: 14.63511581 rev/day Decay rate: 2.16e-06 rev/day^2 Epoch rev: 39485 Checksum: 356
Satellite: VO-52 Catalog number: 28650 Epoch time: 11048.65595022 Element set: 721 Inclination: 097.6598 deg RA of node: 097.0531 deg Eccentricity: 0.0026651 Arg of perigee: 190.8797 deg Mean anomaly: 169.1805 deg Mean motion: 14.81911985 rev/day Decay rate: 4.93e-06 rev/day^2 Epoch rev: 31304 Checksum: 330
Satellite: SO-67 Catalog number: 35870 Epoch time: 11048.69450748 Element set: 571 Inclination: 097.2984 deg RA of node: 095.8859 deg Eccentricity: 0.0002351 Arg of perigee: 349.3614 deg Mean anomaly: 159.2341 deg Mean motion: 15.21348184 rev/day Decay rate: 1.415e-05 rev/day^2 Epoch rev: 7877 Checksum: 341
Satellite: HO-68 Catalog number: 36122 Epoch time: 11048.75422845 Element set: 122 Inclination: 100.4326 deg RA of node: 111.3061 deg Eccentricity: 0.0007982 Arg of perigee: 134.7636 deg Mean anomaly: 225.4128 deg Mean motion: 13.16283998 rev/day Decay rate: -4.5e-07 rev/day^2 Epoch rev: 5652 Checksum: 282
/EX SB KEPS @ AMSAT $ORB11048.D Orbital Elements 11048.MICROS
HR AMSAT ORBITAL ELEMENTS FOR THE MICROSATS FROM WA5QGD FORT WORTH,TX February 17, 2011 Send Subscribe/unsubscribe to KEPS at http://www.amsat.org/mailman/listinfo/keps BID: ORB11048.D TO ALL RADIO AMATEURS BT
Satellite: UO-11 Catalog number: 14781 Epoch time: 11047.65537482 Element set: 0473 Inclination: 098.0216 deg RA of node: 104.6564 deg Eccentricity: 0.0009201 Arg of perigee: 162.2149 deg Mean anomaly: 197.9406 deg Mean motion: 14.79890826 rev/day Decay rate: 4.04e-06 rev/day^2 Epoch rev: 44796 Checksum: 317
Satellite: AO-16 Catalog number: 20439 Epoch time: 11048.74206784 Element set: 120 Inclination: 098.3681 deg RA of node: 002.4459 deg Eccentricity: 0.0011028 Arg of perigee: 153.3191 deg Mean anomaly: 206.8561 deg Mean motion: 14.31895786 rev/day Decay rate: 5.1e-07 rev/day^2 Epoch rev: 10052 Checksum: 279
Satellite: LO-19 Catalog number: 20442 Epoch time: 11047.72250623 Element set: 0029 Inclination: 098.3300 deg RA of node: 006.2837 deg Eccentricity: 0.0012273 Arg of perigee: 150.6895 deg Mean anomaly: 209.4977 deg Mean motion: 14.32122968 rev/day Decay rate: 6.0e-08 rev/day^2 Epoch rev: 10055 Checksum: 276
Satellite: AO-27 Catalog number: 22825 Epoch time: 11047.88620212 Element set: 0752 Inclination: 098.5161 deg RA of node: 354.9032 deg Eccentricity: 0.0007620 Arg of perigee: 271.2126 deg Mean anomaly: 088.8186 deg Mean motion: 14.29326246 rev/day Decay rate: -8.9e-07 rev/day^2 Epoch rev: 90700 Checksum: 299
Satellite: IO-26 Catalog number: 22826 Epoch time: 11048.81746031 Element set: 489 Inclination: 098.5122 deg RA of node: 356.3280 deg Eccentricity: 0.0008112 Arg of perigee: 262.8581 deg Mean anomaly: 097.1686 deg Mean motion: 14.29586368 rev/day Decay rate: 3.9e-07 rev/day^2 Epoch rev: 90725 Checksum: 326
Satellite: GO-32 Catalog number: 25397 Epoch time: 11047.69197506 Element set: 0408 Inclination: 098.3209 deg RA of node: 046.7373 deg Eccentricity: 0.0000252 Arg of perigee: 287.3330 deg Mean anomaly: 072.7821 deg Mean motion: 14.23196144 rev/day Decay rate: -2.8e-07 rev/day^2 Epoch rev: 65482 Checksum: 304
Satellite: NO-44 Catalog number: 26931 Epoch time: 11047.92308470 Element set: 0684 Inclination: 067.0535 deg RA of node: 293.4100 deg Eccentricity: 0.0007034 Arg of perigee: 271.7388 deg Mean anomaly: 088.2901 deg Mean motion: 14.29632569 rev/day Decay rate: -1.72e-06 rev/day^2 Epoch rev: 48973 Checksum: 315
Satellite: SO-50 Catalog number: 27607 Epoch time: 11048.33386829 Element set: 393 Inclination: 064.5611 deg RA of node: 331.8411 deg Eccentricity: 0.0059018 Arg of perigee: 349.2692 deg Mean anomaly: 010.7156 deg Mean motion: 14.71646085 rev/day Decay rate: 2.30e-06 rev/day^2 Epoch rev: 43845 Checksum: 301
Satellite: CO-55 Catalog number: 27844 Epoch time: 11047.54239525 Element set: 0048 Inclination: 098.7083 deg RA of node: 057.9922 deg Eccentricity: 0.0009710 Arg of perigee: 182.9252 deg Mean anomaly: 177.1880 deg Mean motion: 14.20766987 rev/day Decay rate: -6.76e-06 rev/day^2 Epoch rev: 39578 Checksum: 354
Satellite: CO-57 Catalog number: 27848 Epoch time: 11047.53773442 Element set: 993 Inclination: 098.7144 deg RA of node: 057.1377 deg Eccentricity: 0.0009666 Arg of perigee: 186.5540 deg Mean anomaly: 173.5505 deg Mean motion: 14.20554200 rev/day Decay rate: 7.6e-07 rev/day^2 Epoch rev: 39573 Checksum: 329
Satellite: AO-51 Catalog number: 28375 Epoch time: 11047.47785605 Element set: 0898 Inclination: 098.0843 deg RA of node: 032.3546 deg Eccentricity: 0.0084944 Arg of perigee: 075.7919 deg Mean anomaly: 285.2698 deg Mean motion: 14.40724001 rev/day Decay rate: 3.4e-07 rev/day^2 Epoch rev: 34868 Checksum: 343
Satellite: CP3 Catalog number: 31129 Epoch time: 11047.52169249 Element set: 0800 Inclination: 097.9131 deg RA of node: 078.6497 deg Eccentricity: 0.0101909 Arg of perigee: 195.1213 deg Mean anomaly: 164.6942 deg Mean motion: 14.52376078 rev/day Decay rate: 2.43e-06 rev/day^2 Epoch rev: 20332 Checksum: 294
Satellite: CO-65 Catalog number: 32785 Epoch time: 11047.62074008 Element set: 0919 Inclination: 097.8644 deg RA of node: 113.7532 deg Eccentricity: 0.0014413 Arg of perigee: 205.4734 deg Mean anomaly: 154.5808 deg Mean motion: 14.81829891 rev/day Decay rate: 8.24e-06 rev/day^2 Epoch rev: 15168 Checksum: 320
Satellite: KKS-1 Catalog number: 33493 Epoch time: 11048.68453156 Element set: 319 Inclination: 098.1081 deg RA of node: 175.7116 deg Eccentricity: 0.0020882 Arg of perigee: 069.4559 deg Mean anomaly: 290.8903 deg Mean motion: 14.81327730 rev/day Decay rate: 7.91e-06 rev/day^2 Epoch rev: 11182 Checksum: 308
Satellite: SOHLA-1 Catalog number: 33496 Epoch time: 11047.74044989 Element set: 0338 Inclination: 098.0680 deg RA of node: 158.8778 deg Eccentricity: 0.0007203 Arg of perigee: 139.1747 deg Mean anomaly: 221.0009 deg Mean motion: 14.69556152 rev/day Decay rate: 8.6e-07 rev/day^2 Epoch rev: 11079 Checksum: 318
Satellite: TISAT-1 Catalog number: 36799 Epoch time: 11048.70893926 Element set: 593 Inclination: 098.1163 deg RA of node: 115.7242 deg Eccentricity: 0.0014358 Arg of perigee: 305.8498 deg Mean anomaly: 054.1312 deg Mean motion: 14.80317339 rev/day Decay rate: -2.6e-07 rev/day^2 Epoch rev: 3263 Checksum: 307
Satellite: STUDSAT Catalog number: 36801 Epoch time: 11048.84410918 Element set: 135 Inclination: 098.1166 deg RA of node: 115.7148 deg Eccentricity: 0.0012886 Arg of perigee: 292.4187 deg Mean anomaly: 067.5661 deg Mean motion: 14.80009882 rev/day Decay rate: -1.094e-05 rev/day^2 Epoch rev: 3264 Checksum: 301
Satellite: RAX Catalog number: 37223 Epoch time: 11047.27696737 Element set: 0084 Inclination: 071.9744 deg RA of node: 305.5778 deg Eccentricity: 0.0020243 Arg of perigee: 156.1195 deg Mean anomaly: 204.0952 deg Mean motion: 14.77236729 rev/day Decay rate: 2.10e-06 rev/day^2 Epoch rev: 01303 Checksum: 284
Satellite: OOREOS Catalog number: 37224 Epoch time: 11043.43618410 Element set: 0081 Inclination: 071.9758 deg RA of node: 314.1598 deg Eccentricity: 0.0019424 Arg of perigee: 162.0076 deg Mean anomaly: 198.1778 deg Mean motion: 14.76892599 rev/day Decay rate: 2.19e-06 rev/day^2 Epoch rev: 01245 Checksum: 307
Satellite: NANOSALD Catalog number: 37225 Epoch time: 11047.29787394 Element set: 0039 Inclination: 071.9711 deg RA of node: 305.6405 deg Eccentricity: 0.0021383 Arg of perigee: 112.9664 deg Mean anomaly: 247.4297 deg Mean motion: 14.78488639 rev/day Decay rate: 4.7928e-04 rev/day^2 Epoch rev: 00413 Checksum: 326
Satellite: FAST1-2 Catalog number: 37227 Epoch time: 11048.41045685 Element set: 0081 Inclination: 071.9740 deg RA of node: 303.3320 deg Eccentricity: 0.0016667 Arg of perigee: 148.9109 deg Mean anomaly: 211.3043 deg Mean motion: 14.76393123 rev/day Decay rate: 3.21e-06 rev/day^2 Epoch rev: 01318 Checksum: 262
/EX SB KEPS @ AMSAT $ORB11048.W Orbital Elements 11048.WEATHER
HR AMSAT ORBITAL ELEMENTS FOR WEATHER SATELLITES FROM WA5QGD FORT WORTH,TX February 17, 2011 Send Subscribe/unsubscribe to KEPS at http://www.amsat.org/mailman/listinfo/keps BID: ORB11048.W TO ALL RADIO AMATEURS BT
Satellite: NOAA-10 Catalog number: 16969 Epoch time: 11047.64704614 Element set: 0398 Inclination: 098.6332 deg RA of node: 079.0010 deg Eccentricity: 0.0011726 Arg of perigee: 215.1868 deg Mean anomaly: 144.8530 deg Mean motion: 14.27443519 rev/day Decay rate: -5.3e-07 rev/day^2 Epoch rev: 27045 Checksum: 296
